Satellite: CO-57
Catalog number: 27848
Epoch time:      09260.80947590
Element set:     619
Inclination:      098.7177 deg
RA of node:       267.7385 deg
Eccentricity:    0.0008969
Arg of perigee:   241.1494 deg
Mean anomaly:     118.8791 deg
Mean motion:   14.20455525 rev/day
Decay rate:        1.1e-07 rev/day^2
Epoch rev:           32237
Checksum:              348

Satellite: AO-51
Catalog number: 28375
Epoch time:      09260.06012408
Element set:     487
Inclination:      098.0547 deg
RA of node:       264.3202 deg
Eccentricity:    0.0082903
Arg of perigee:   206.0341 deg
Mean anomaly:     153.6669 deg
Mean motion:   14.40652079 rev/day
Decay rate:        1.0e-08 rev/day^2
Epoch rev:           27418
Checksum:              287

Satellite: CO-56
Catalog number: 28941
Epoch time:      09260.75404732
Element set:     450
Inclination:      098.1266 deg
RA of node:       093.5596 deg
Eccentricity:    0.0052767
Arg of perigee:   138.7772 deg
Mean anomaly:     221.7472 deg
Mean motion:   15.98979695 rev/day
Decay rate:    1.57467e-03 rev/day^2
Epoch rev:           20196
Checksum:              372

Satellite: GENESAT1
Catalog number: 29655
Epoch time:      09259.59750941
Element set:    0819
Inclination:      040.0242 deg
RA of node:       329.7914 deg
Eccentricity:    0.0002151
Arg of perigee:   083.8321 deg
Mean anomaly:     276.2742 deg
Mean motion:   15.67438654 rev/day
Decay rate:     1.3207e-04 rev/day^2
Epoch rev:           15681
Checksum:              312

Satellite: CP3
Catalog number: 31129
Epoch time:      09260.71056793
Element set:     200
Inclination:      097.9795 deg
RA of node:       309.3144 deg
Eccentricity:    0.0102724
Arg of perigee:   359.2113 deg
Mean anomaly:     000.8896 deg
Mean motion:   14.52161620 rev/day
Decay rate:        3.8e-07 rev/day^2
Epoch rev:           12831
Checksum:              281

Satellite: CO-65
Catalog number: 32785
Epoch time:      09260.72252769
Element set:     473
Inclination:      097.9364 deg
RA of node:       323.8817 deg
Eccentricity:    0.0016137
Arg of perigee:   090.1838 deg
Mean anomaly:     270.1222 deg
Mean motion:   14.81516508 rev/day
Decay rate:       -9.3e-07 rev/day^2
Epoch rev:            7514
Checksum:              320

Satellite: KKS-1
Catalog number: 33493
Epoch time:      09260.81384222
Element set:     764
Inclination:      098.0635 deg
RA of node:       013.4647 deg
Eccentricity:    0.0019000
Arg of perigee:   304.4734 deg
Mean anomaly:     055.4695 deg
Mean motion:   14.80728283 rev/day
Decay rate:       2.25e-06 rev/day^2
Epoch rev:            3517
Checksum:              290

Satellite: SOHLA-1
Catalog number: 33496
Epoch time:      09260.79020507
Element set:     729
Inclination:      098.0437 deg
RA of node:       008.6832 deg
Eccentricity:    0.0006756
Arg of perigee:   000.3019 deg
Mean anomaly:     359.8188 deg
Mean motion:   14.69446383 rev/day
Decay rate:        2.8e-07 rev/day^2
Epoch rev:            3487
Checksum:              319

/EX
SB KEPS @ AMSAT  $ORB09260.W
Orbital Elements  09260.WEATHER

HR AMSAT ORBITAL ELEMENTS FOR WEATHER SATELLITES
FROM WA5QGD FORT WORTH,TX September 17, 2009
Send Subscribe/unsubscribe to KEPS at 
http://www.amsat.org/mailman/listinfo/keps
BID: ORB09260.W
TO ALL RADIO AMATEURS BT

Satellite: NOAA-10
Catalog number: 16969
Epoch time:      09259.63458652
Element set:    0764
Inclination:      098.6879 deg
RA of node:       285.7660 deg
Eccentricity:    0.0011569
Arg of perigee:   292.1902 deg
Mean anomaly:     067.8053 deg
Mean motion:   14.27393506 rev/day
Decay rate:      -1.13e-06 rev/day^2
Epoch rev:           19655
Checksum:              352

Satellite: NOAA-11
Catalog number: 19531
Epoch time:      09259.78449313
Element set:    0782
Inclination:      098.7821 deg
RA of node:       348.3147 deg
Eccentricity:    0.0011106
Arg of perigee:   204.8251 deg
Mean anomaly:     155.2372 deg
Mean motion:   14.14903584 rev/day
Decay rate:        8.5e-07 rev/day^2
Epoch rev:           08247
Checksum:              307

Satellite: NOAA-12
Catalog number: 21263
Epoch time:      09259.98104141
Element set:    0294
Inclination:      098.7750 deg
RA of node:       268.0943 deg
Eccentricity:    0.0011407
Arg of perigee:   238.6592 deg
Mean anomaly:     121.3473 deg
Mean motion:   14.25593049 rev/day
Decay rate:        1.7e-07 rev/day^2
Epoch rev:           95347
Checksum:              311

Satellite: MET-3/5
Catalog number: 21655
Epoch time:      09260.90745598
Element set:     655
Inclination:      082.5581 deg
RA of node:       141.0151 deg
Eccentricity:    0.0012921
Arg of perigee:   314.0697 deg
Mean anomaly:     045.9359 deg
Mean motion:   13.17021356 rev/day
Decay rate:        5.1e-07 rev/day^2
Epoch rev:           86983
Checksum:              309

Satellite: MET-2/21
Catalog number: 22782
Epoch time:      09260.66880123
Element set:     567
Inclination:      082.5457 deg
RA of node:       108.6595 deg
Eccentricity:    0.0023866
Arg of perigee:   087.3329 deg
Mean anomaly:     273.0565 deg
Mean motion:   13.83638072 rev/day
Decay rate:        8.0e-08 rev/day^2
Epoch rev:           81039
Checksum:              327

